ONEWEB-0211 (48767 NORAD) Tracking and Keplerian Element Data

This shows tracking and keplerian element data for the satellite.

Feedback or suggestion? Click here.




ElementValue
Catalog48767
NameONEWEB-0211
Epoch Orbit355
Epoch Day214.91667824
Epoch Year2021
RAAN254.7502
Inclination87.6262
Eccentricity0.0009148
Argument of Perigee50.7174
Mean Anonmoly16.3422
Mean Motion14.39714262
Decay Rate-0.01398987
L11 48767U 21045A 21214.91667824 -.01398987 00000-0 -47828+0 0 9992
L22 48767 87.6262 254.7502 0009148 50.7174 16.3422 14.39714262 3556

Live tracking and technical data element details for ONEWEB-0211 (NORAD 48767). ONEWEB-0211 can be tracked NOW for your location showing map with azimuth and elevation plus other details from your city location.

Track the satellite on the map from your city or location and see movement details for azimuth, elevation, latitude, longitude, range, height, and movement on the map or in text.







IsCatalogInMostPopularTable: catalog: 48767, numindb: 14
Update: records affected: 1



GetName: 48767 ONEWEB-0211

Hit Count: updated at: Tue, 03 Aug 2021 19:39:02 GMT